Location: Dealu Mare
(46.0500°N, 22.8167°E)
Time: 21:57:32
(UTC+00:00)

CZ-4C R/B - Pass Details

Date: 15 January 2026
Orbit: 483 x 1496 km, 63.4° (Epoch: 10 February)

Event Time Altitude Azimuth Distance (km) Brightness Sun altitude
Exits shadow 04:33:11 - 333° (NNW) 2,662 4.4 -15.9°
Reaches altitude 10° 04:33:22 10° 334° (NNW) 2,622 4.4 -15.8°
Maximum altitude 04:38:00 21° 22° (NNE) 2,186 4.4 -15.0°
Drops below altitude 10° 04:43:28 10° 69° (ENE) 3,167 6.0 -14.1°
Sets 04:47:26 0° 84° (E) 4,307 7.2 -13.5°
